[[{"header":{"parameterUnit":"m.s-1","parameterCategory":1,"la1":30.2992,"la2":30.254,"lo1":-89.0895,"lo2":-89.0443,"dy":0.0025,"dx":0.0025,"nx":19,"ny":19,"refTime":"2026-05-17T21:00:00:Z","depth":0,"parameterNumber":2,"parameterNumberName":"U-component_of_WINDS"},"data":[0,0,0,-4.5148,-4.5151,-4.5264,-4.5264,-4.542,-4.5422,0,0,0,0,0,0,0,0,0,0,0,-4.5122,-4.5124,-4.5148,-4.5151,-4.5264,-4.5264,-4.542,-4.5422,0,0,0,0,0,0,0,0,0,0,0,-4.5122,-4.5123,-4.5125,-4.5151,-4.5264,-4.5264,-4.542,-4.533,0,0,0,0,0,0,0,0,0,0,-4.5218,-4.5203,-4.5123,-4.5125,-4.5152,-4.5264,-4.5264,-4.5326,-4.5336,-4.5374,0,-4.5412,0,-4.5419,-4.5433,-4.5434,0,0,0,-4.5145,-4.5194,-4.5218,-4.5125,-4.5153,-4.5263,-4.5211,-4.5331,-4.5343,-4.5388,-4.5414,-4.5419,-4.5422,-4.5434,-4.5435,-4.568,-4.5681,0,0,-4.5138,-4.5147,-4.521,-4.5225,-4.521,-4.5207,-4.5215,-4.5338,-4.5366,-4.5414,-4.5423,-4.5425,-4.5435,-4.5437,-4.5679,-4.568,0,0,0,-4.5125,-4.5143,-4.5163,-4.5219,-4.5239,-4.5211,-4.5219,-4.5361,-4.5367,-4.5424,-4.5426,-4.5436,-4.5438,-4.5677,-4.5679,-4.5756,0,0,0,-4.5121,-4.5135,-4.516,-4.5167,-4.5237,-4.5301,-4.524,-4.5358,-4.5372,-4.5426,-4.5436,-4.544,-4.5675,-4.5678,-4.5751,-4.5791,0,0,0,-4.5112,-4.5133,-4.5153,-4.5167,-4.5216,-4.5299,-4.5312,-4.5361,-4.5374,-4.5434,-4.5441,-4.5674,-4.5678,-4.5746,-4.5783,-4.5856,0,0,0,-4.5106,-4.522,-4.5154,-4.5283,-4.5215,-4.5347,-4.5311,-4.5409,-4.547,-4.5437,-4.5676,-4.5679,-4.5744,-4.5778,-4.5851,-4.5918,-4.5947,0,0,-4.5255,-4.5239,-4.5314,-4.5258,-4.5404,-4.5329,-4.5486,-4.5535,-4.5533,-4.5631,-4.5637,-4.5753,-4.5782,-4.5855,-4.6113,-4.6136,0,0,0,-4.5364,-4.5418,-4.5455,-4.5514,-4.5554,-4.5591,-4.5614,-4.5632,-4.5715,-4.5585,-4.58,-4.5817,-4.586,-4.5891,-4.5911,-4.5946,-4.5695,-4.5694,-4.5694,-4.5586,-4.5578,-4.5701,-4.5707,-4.5764,-4.5787,-4.5833,-4.5861,-4.5836,-4.5887,-4.5915,-4.6072,-4.611,-4.6124,-4.6161,-4.5952,-4.5952,-4.5952,-4.5953,-4.5802,-4.5876,-4.5841,-4.5947,-4.5938,-4.6028,-4.6055,-4.6034,-4.6115,-4.605,-4.6087,-4.6015,-4.615,-4.6182,-4.5958,-4.5957,-4.5957,-4.5956,-4.5956,-4.5944,-4.5978,-4.5999,-4.6082,-4.6148,-4.615,-4.6229,-4.6218,-4.6209,-4.6246,-4.6273,-4.6272,-4.6267,-4.626,-4.626,-4.6261,-4.6261,-4.6262,-4.6262,-4.6083,-4.6103,-4.6172,-4.6224,-4.626,-4.6306,-4.6331,-4.6366,-4.6401,-4.6387,-4.6387,-4.6356,-4.6166,-4.6117,-4.6271,-4.6269,-4.6268,-4.6267,-4.6267,-4.6301,-4.625,-4.6356,-4.6392,-4.6452,-4.6517,-4.6503,-4.6574,-4.6602,-4.6641,-4.6603,-4.6465,-4.6447,-4.6431,-4.639,-4.6606,-4.6606,-4.6606,-4.6606,-4.6419,-4.641,-4.6515,-4.6573,-4.6629,-4.6627,-4.6745,-4.6766,-4.6779,-4.6795,-4.6763,-4.6709,-4.6694,-4.6685,-4.6663,-4.6625,-4.6895,-4.6895,-4.6896,-4.6552,-4.6548,-4.6651,-4.6663,-4.6709,-4.6749,-4.6859,-4.6927,-4.6931,-4.6907,-4.6807,-4.6795,-4.6707,-4.668,-4.6651,-4.6618,-4.6547,0,0]},{"header":{"parameterUnit":"m.s-1","parameterCategory":1,"la1":30.2992,"la2":30.254,"lo1":-89.0895,"lo2":-89.0443,"dy":0.0025,"dx":0.0025,"nx":19,"ny":19,"refTime":"2026-05-17T21:00:00:Z","depth":0,"parameterNumber":3,"parameterNumberName":"V-component_of_WINDS"},"data":[0,0,0,3.4447,3.4448,3.4457,3.4457,3.4486,3.4486,0,0,0,0,0,0,0,0,0,0,0,3.4454,3.4455,3.4447,3.4448,3.4457,3.4457,3.4486,3.4486,0,0,0,0,0,0,0,0,0,0,0,3.4454,3.4454,3.4455,3.4448,3.4457,3.4457,3.4486,3.4473,0,0,0,0,0,0,0,0,0,0,3.4461,3.4476,3.4454,3.4455,3.4448,3.4457,3.4457,3.4472,3.4473,3.4488,0,3.4504,0,3.4496,3.4489,3.4489,0,0,0,3.4441,3.4475,3.4469,3.4455,3.4448,3.4457,3.4451,3.4473,3.4475,3.4491,3.4504,3.4505,3.4496,3.4489,3.449,3.4599,3.46,0,0,3.444,3.4461,3.4468,3.4471,3.447,3.4451,3.4451,3.4473,3.4489,3.4504,3.4505,3.4497,3.449,3.449,3.4598,3.4599,0,0,0,3.4443,3.4461,3.4454,3.447,3.447,3.4451,3.4452,3.4488,3.4484,3.4505,3.4497,3.449,3.449,3.4597,3.4598,3.4659,0,0,0,3.4443,3.4463,3.4454,3.4467,3.447,3.4479,3.4467,3.4483,3.4485,3.4497,3.449,3.4491,3.4596,3.4598,3.4656,3.4684,0,0,0,3.445,3.4463,3.4468,3.4468,3.4473,3.4478,3.4475,3.4483,3.448,3.4489,3.4491,3.4595,3.4597,3.4652,3.4679,3.4719,0,0,0,3.4464,3.4522,3.4469,3.4532,3.4473,3.4517,3.4475,3.4507,3.4522,3.449,3.4596,3.4598,3.4651,3.4676,3.4715,3.4755,3.4774,0,0,3.4549,3.4533,3.4568,3.4521,3.4579,3.4513,3.4581,3.4575,3.4558,3.4586,3.4589,3.4657,3.4679,3.4718,3.4874,3.4889,0,0,0,3.4602,3.4628,3.4639,3.4654,3.4651,3.4651,3.4634,3.4632,3.4655,3.4576,3.4682,3.4694,3.4717,3.4735,3.4747,3.4765,3.4608,3.4608,3.4607,3.4752,3.4726,3.4782,3.4758,3.4774,3.4755,3.4765,3.476,3.4729,3.4755,3.4762,3.486,3.4882,3.4892,3.4911,3.4782,3.4783,3.4783,3.4783,3.4873,3.4905,3.4863,3.4903,3.4876,3.4908,3.4894,3.4871,3.4898,3.4852,3.487,3.4822,3.4909,3.4924,3.4787,3.4787,3.4786,3.4786,3.4785,3.4967,3.4978,3.4975,3.4995,3.5014,3.4987,3.5015,3.499,3.4966,3.4984,3.499,3.4989,3.4984,3.4989,3.4989,3.499,3.499,3.499,3.499,3.5065,3.506,3.5086,3.5089,3.5096,3.5102,3.5085,3.5091,3.5092,3.5071,3.5071,3.5038,3.4923,3.4894,3.4996,3.4995,3.4994,3.4993,3.4993,3.5196,3.5163,3.5203,3.5211,3.5212,3.5233,3.52,3.5215,3.5217,3.5232,3.5195,3.5115,3.5096,3.5086,3.5062,3.5201,3.5201,3.5201,3.5201,3.5275,3.5264,3.5299,3.5312,3.5322,3.5298,3.5345,3.5333,3.5315,3.5315,3.5291,3.5258,3.5248,3.5235,3.5222,3.5199,3.5369,3.537,3.537,3.5354,3.5342,3.5387,3.5369,3.5369,3.5369,3.5413,3.543,3.5403,3.5376,3.5314,3.5307,3.5252,3.5235,3.5205,3.5185,3.5142,0,0]}]]